QPF
0.04 0.06 0.08 0.08 0.11 0.11 0.10 0.11 0.12 0.11 0.09 0.07 0.06 0.05 0.07 0.10 0.11 0.09 0.09 0.07 0.06 0.04 0.04 0.03 0.02 0.02 0.02 0.02 0.02 0.02 0.02 0.02 0.02 0.02 0.03 0.05 0.07 0.08
0.05 0.06 0.07 0.08 0.10 0.11 0.11 0.11 0.13 0.14 0.12 0.09 0.08 0.08 0.09 0.09 0.11 0.10 0.08 0.07 0.06 0.04 0.04 0.03 0.02 0.01 0.01 0.01 0.01 0.01 0.02 0.02 0.02 0.02 0.02 0.02 0.03 0.04
0.04 0.05 0.06 0.08 0.10 0.11 0.12 0.12 0.14 0.14 0.12 0.11 0.11 0.11 0.13 0.13 0.13 0.12 0.09 0.07 0.05 0.04 0.03 0.03 0.02 0.01 0.01 0.00 0.00 0.00 0.00 0.01 0.01 0.01 0.01 0.01 0.01 0.02
0.04 0.05 0.06 0.08 0.11 0.12 0.12 0.12 0.14 0.15 0.15 0.15 0.14 0.14 0.14 0.12 0.12 0.10 0.09 0.08 0.05 0.04 0.03 0.02 0.02 0.01 0.00 0.00 0.00 0.00 0.00 0.00 0.00 0.00 0.00 0.00 0.01 0.00
0.04 0.05 0.06 0.09 0.11 0.13 0.15 0.15 0.16 0.17 0.20 0.19 0.17 0.14 0.12 0.10 0.08 0.08 0.08 0.07 0.05 0.03 0.02 0.01 0.01 0.00 0.00 0.00 0.00 0.00 0.00 0.00 0.00 0.00 0.00 0.00 0.00 0.00
0.06 0.07 0.07 0.08 0.12 0.18 0.21 0.23 0.22 0.22 0.22 0.23 0.23 0.19 0.15 0.10 0.07 0.07 0.07 0.05 0.04 0.03 0.02 0.01 0.00 0.00 0.00 0.00 0.00 0.00 0.00 0.00 0.00 0.00 0.00 0.00 0.00 0.00
0.04 0.06 0.08 0.09 0.11 0.14 0.19 0.23 0.25 0.26 0.23 0.20 0.20 0.20 0.14 0.10 0.07 0.05 0.04 0.03 0.02 0.02 0.02 0.01 0.01 0.00 0.00 0.00 0.00 0.00 0.00 0.00 0.00 0.00 0.00 0.00 0.00 0.00
0.05 0.06 0.06 0.08 0.08 0.10 0.12 0.16 0.22 0.24 0.22 0.17 0.14 0.12 0.11 0.08 0.05 0.04 0.02 0.01 0.01 0.01 0.01 0.01 0.01 0.01 0.01 0.00 0.00 0.00 0.00 0.00 0.00 0.00 0.00 0.00 0.00 0.00
0.04 0.06 0.06 0.06 0.07 0.07 0.08 0.10 0.13 0.17 0.17 0.13 0.09 0.07 0.06 0.04 0.04 0.03 0.02 0.01 0.01 0.00 0.00 0.00 0.01 0.01 0.00 0.00 0.00 0.00 0.00 0.00 0.00 0.00 0.00 0.00 0.00 0.00
0.03 0.04 0.05 0.05 0.06 0.06 0.05 0.05 0.06 0.09 0.11 0.11 0.08 0.05 0.04 0.03 0.02 0.02 0.01 0.01 0.00 0.00 0.00 0.00 0.00 0.00 0.00 0.00 0.00 0.00 0.00 0.00 0.00 0.00 0.00 0.00 0.00 0.00
0.05 0.04 0.04 0.04 0.04 0.04 0.04 0.04 0.03 0.04 0.06 0.07 0.06 0.05 0.03 0.02 0.01 0.01 0.00 0.00 0.00 0.00 0.00 0.00 0.00 0.00 0.00 0.00 0.00 0.00 0.00 0.00 0.00 0.00 0.00 0.00 0.00 0.00
0.05 0.04 0.05 0.05 0.03 0.03 0.04 0.03 0.03 0.02 0.02 0.02 0.01 0.01 0.01 0.01 0.00 0.00 0.00 0.00 0.00 0.00 0.00 0.00 0.00 0.00 0.00 0.00 0.00 0.00 0.00 0.00 0.00 0.00 0.00 0.00 0.00 0.00
0.05 0.05 0.06 0.04 0.03 0.02 0.03 0.03 0.02 0.01 0.01 0.01 0.00 0.00 0.00 0.00 0.00 0.00 0.00 0.00 0.00 0.00 0.00 0.00 0.00 0.00 0.00 0.00 0.00 0.00 0.00 0.01 0.01 0.01 0.01 0.01 0.01 0.02
0.05 0.04 0.04 0.03 0.02 0.01 0.01 0.01 0.01 0.00 0.00 0.00 0.00 0.00 0.00 0.00 0.00 0.00 0.00 0.00 0.00 0.00 0.00 0.00 0.00 0.00 0.00 0.00 0.00 0.00 0.00 0.00 0.01 0.01 0.02 0.02 0.03 0.04
0.03 0.02 0.02 0.02 0.01 0.01 0.01 0.00 0.00 0.00 0.00 0.00 0.00 0.00 0.00 0.00 0.00 0.00 0.00 0.00 0.00 0.00 0.00 0.00 0.00 0.00 0.00 0.00 0.00 0.00 0.00 0.00 0.00 0.01 0.02 0.03 0.04 0.05
0.01 0.01 0.01 0.01 0.01 0.00 0.00 0.00 0.00 0.00 0.00 0.00 0.00 0.00 0.00 0.00 0.00 0.00 0.00 0.00 0.00 0.00 0.00 0.00 0.00 0.00 0.00 0.00 0.00 0.00 0.00 0.00 0.00 0.01 0.02 0.04 0.05 0.07
0.01 0.00 0.00 0.00 0.01 0.01 0.00 0.00 0.00 0.00 0.00 0.00 0.00 0.00 0.00 0.00 0.00 0.00 0.00 0.00 0.00 0.00 0.00 0.00 0.00 0.00 0.00 0.00 0.00 0.00 0.00 0.00 0.00 0.01 0.02 0.04 0.05 0.05
0.00 0.00 0.00 0.00 0.00 0.00 0.00 0.00 0.00 0.00 0.00 0.00 0.00 0.00 0.00 0.00 0.00 0.00 0.00 0.00 0.00 0.00 0.00 0.00 0.00 0.00 0.00 0.00 0.00 0.00 0.00 0.00 0.00 0.00 0.01 0.03 0.03 0.03
0.00 0.01 0.00 0.00 0.00 0.00 0.00 0.00 0.00 0.00 0.00 0.00 0.00 0.00 0.00 0.00 0.00 0.00 0.00 0.00 0.00 0.00 0.00 0.00 0.00 0.00 0.00 0.00 0.00 0.00 0.00 0.00 0.00 0.00 0.00 0.01 0.02 0.02
0.01 0.01 0.00 0.00 0.00 0.00 0.00 0.00 0.00 0.00 0.00 0.00 0.00 0.00 0.00 0.00 0.00 0.00 0.00 0.00 0.00 0.00 0.00 0.00 0.00 0.00 0.00 0.00 0.00 0.00 0.00 0.00 0.00 0.00 0.00 0.01 0.01 0.01
0.01 0.00 0.00 0.00 0.00 0.00 0.00 0.00 0.00 0.00 0.00 0.00 0.00 0.00 0.00 0.00 0.00 0.00 0.00 0.00 0.00 0.00 0.00 0.00 0.00 0.00 0.00 0.00 0.00 0.00 0.00 0.00 0.00 0.00 0.00 0.00 0.00 0.00
0.01 0.00 0.00 0.00 0.00 0.00 0.00 0.00 0.00 0.00 0.00 0.00 0.00 0.00 0.00 0.00 0.00 0.00 0.00 0.00 0.00 0.00 0.00 0.00 0.00 0.00 0.00 0.00 0.00 0.00 0.00 0.00 0.00 0.00 0.00 0.00 0.00 0.00
0.01 0.00 0.00 0.00 0.00 0.00 0.00 0.00 0.00 0.00 0.00 0.00 0.00 0.00 0.00 0.00 0.00 0.00 0.00 0.00 0.00 0.00 0.00 0.00 0.00 0.00 0.00 0.00 0.00 0.00 0.00 0.00 0.00 0.00 0.00 0.00 0.00 0.00
MSLP
1005.24 1004.58 1004.00 1003.58 1003.36 1003.37 1003.59 1004.02 1004.60 1005.27 1005.95 1006.58 1007.11 1007.49 1007.72 1007.83 1007.87 1007.89 1007.95 1008.09 1008.36 1008.76 1009.26 1009.84 1010.45 1011.04 1011.56 1012.00 1012.34 1012.58 1012.74 1012.86 1012.96 1013.07 1013.19 1013.33 1013.50 1013.67
1004.64 1003.87 1003.21 1002.70 1002.42 1002.41 1002.66 1003.15 1003.85 1004.66 1005.52 1006.35 1007.06 1007.62 1008.01 1008.25 1008.37 1008.45 1008.53 1008.67 1008.92 1009.29 1009.76 1010.32 1010.91 1011.49 1012.01 1012.46 1012.80 1013.04 1013.20 1013.30 1013.38 1013.45 1013.53 1013.64 1013.76 1013.89
1004.14 1003.32 1002.59 1002.03 1001.70 1001.67 1001.93 1002.47 1003.24 1004.17 1005.16 1006.12 1006.99 1007.69 1008.21 1008.55 1008.76 1008.88 1008.99 1009.14 1009.37 1009.71 1010.17 1010.70 1011.28 1011.86 1012.40 1012.86 1013.22 1013.48 1013.65 1013.76 1013.82 1013.87 1013.91 1013.98 1014.06 1014.15
1003.84 1003.01 1002.26 1001.67 1001.33 1001.28 1001.54 1002.09 1002.89 1003.87 1004.92 1005.97 1006.92 1007.72 1008.32 1008.74 1009.00 1009.17 1009.29 1009.44 1009.67 1009.99 1010.43 1010.95 1011.53 1012.12 1012.68 1013.17 1013.56 1013.85 1014.04 1014.15 1014.21 1014.24 1014.26 1014.28 1014.32 1014.36
1003.79 1003.00 1002.28 1001.71 1001.37 1001.31 1001.55 1002.09 1002.87 1003.84 1004.89 1005.95 1006.92 1007.74 1008.38 1008.83 1009.12 1009.31 1009.44 1009.59 1009.81 1010.12 1010.54 1011.06 1011.64 1012.24 1012.82 1013.34 1013.76 1014.09 1014.31 1014.44 1014.50 1014.52 1014.52 1014.50 1014.49 1014.48
1004.00 1003.30 1002.65 1002.14 1001.82 1001.76 1001.98 1002.48 1003.21 1004.10 1005.10 1006.09 1007.02 1007.81 1008.43 1008.87 1009.17 1009.35 1009.49 1009.63 1009.84 1010.14 1010.54 1011.05 1011.62 1012.23 1012.82 1013.37 1013.82 1014.18 1014.43 1014.58 1014.66 1014.67 1014.64 1014.59 1014.54 1014.49
1004.39 1003.83 1003.30 1002.88 1002.62 1002.58 1002.78 1003.21 1003.85 1004.65 1005.53 1006.42 1007.25 1007.96 1008.52 1008.92 1009.19 1009.36 1009.49 1009.62 1009.81 1010.10 1010.48 1010.97 1011.53 1012.13 1012.72 1013.28 1013.75 1014.13 1014.41 1014.58 1014.66 1014.67 1014.63 1014.56 1014.47 1014.38
1004.87 1004.47 1004.10 1003.80 1003.63 1003.62 1003.80 1004.18 1004.72 1005.39 1006.14 1006.89 1007.59 1008.20 1008.68 1009.02 1009.26 1009.40 1009.51 1009.63 1009.81 1010.07 1010.43 1010.88 1011.41 1011.98 1012.56 1013.11 1013.58 1013.97 1014.25 1014.44 1014.53 1014.54 1014.49 1014.41 1014.30 1014.18
1005.30 1005.10 1004.91 1004.75 1004.68 1004.73 1004.91 1005.24 1005.69 1006.24 1006.84 1007.46 1008.03 1008.52 1008.92 1009.20 1009.39 1009.52 1009.61 1009.72 1009.88 1010.11 1010.43 1010.84 1011.32 1011.85 1012.39 1012.90 1013.35 1013.73 1014.01 1014.19 1014.29 1014.30 1014.26 1014.17 1014.05 1013.92
1005.61 1005.60 1005.59 1005.59 1005.64 1005.75 1005.95 1006.24 1006.62 1007.06 1007.55 1008.04 1008.49 1008.89 1009.21 1009.45 1009.61 1009.72 1009.81 1009.91 1010.04 1010.25 1010.52 1010.88 1011.30 1011.76 1012.24 1012.69 1013.10 1013.44 1013.71 1013.88 1013.98 1014.00 1013.96 1013.88 1013.76 1013.64
1005.73 1005.91 1006.07 1006.22 1006.38 1006.56 1006.79 1007.07 1007.40 1007.77 1008.16 1008.56 1008.93 1009.26 1009.53 1009.74 1009.89 1010.00 1010.09 1010.18 1010.30 1010.48 1010.71 1011.00 1011.35 1011.74 1012.13 1012.52 1012.87 1013.16 1013.39 1013.55 1013.63 1013.66 1013.63 1013.56 1013.46 1013.34
1005.70 1006.03 1006.33 1006.61 1006.86 1007.12 1007.38 1007.66 1007.96 1008.28 1008.62 1008.96 1009.29 1009.58 1009.83 1010.03 1010.19 1010.31 1010.41 1010.51 1010.62 1010.77 1010.96 1011.20 1011.47 1011.77 1012.09 1012.39 1012.67 1012.91 1013.09 1013.22 1013.29 1013.31 1013.29 1013.24 1013.16 1013.07
1005.56 1006.00 1006.40 1006.77 1007.10 1007.41 1007.71 1008.00 1008.29 1008.60 1008.91 1009.23 1009.53 1009.81 1010.07 1010.28 1010.46 1010.61 1010.73 1010.84 1010.96 1011.09 1011.24 1011.42 1011.63 1011.86 1012.09 1012.32 1012.52 1012.69 1012.83 1012.92 1012.97 1012.99 1012.98 1012.94 1012.89 1012.82
1005.37 1005.87 1006.34 1006.76 1007.14 1007.49 1007.81 1008.11 1008.42 1008.72 1009.03 1009.35 1009.66 1009.95 1010.23 1010.47 1010.68 1010.86 1011.01 1011.14 1011.26 1011.38 1011.51 1011.65 1011.81 1011.97 1012.13 1012.29 1012.42 1012.54 1012.62 1012.68 1012.71 1012.72 1012.71 1012.69 1012.66 1012.62
1005.18 1005.70 1006.19 1006.63 1007.03 1007.39 1007.73 1008.05 1008.37 1008.69 1009.02 1009.35 1009.68 1010.00 1010.30 1010.58 1010.82 1011.03 1011.21 1011.36 1011.50 1011.62 1011.74 1011.85 1011.97 1012.09 1012.20 1012.30 1012.39 1012.45 1012.49 1012.52 1012.52 1012.52 1012.51 1012.50 1012.50 1012.48
1004.99 1005.50 1005.98 1006.41 1006.81 1007.18 1007.53 1007.86 1008.20 1008.55 1008.90 1009.26 1009.62 1009.97 1010.30 1010.61 1010.88 1011.12 1011.33 1011.51 1011.66 1011.79 1011.91 1012.02 1012.12 1012.21 1012.30 1012.36 1012.41 1012.44 1012.44 1012.44 1012.43 1012.41 1012.40 1012.40 1012.40 1012.40
1004.78 1005.26 1005.71 1006.12 1006.51 1006.88 1007.23 1007.59 1007.96 1008.33 1008.72 1009.11 1009.50 1009.88 1010.24 1010.58 1010.88 1011.14 1011.37 1011.57 1011.74 1011.89 1012.02 1012.14 1012.25 1012.34 1012.41 1012.46 1012.49 1012.49 1012.48 1012.46 1012.43 1012.40 1012.39 1012.38 1012.39 1012.39
1004.50 1004.94 1005.36 1005.75 1006.13 1006.50 1006.88 1007.26 1007.66 1008.07 1008.50 1008.93 1009.35 1009.76 1010.14 1010.50 1010.82 1011.10 1011.35 1011.56 1011.76 1011.93 1012.08 1012.22 1012.34 1012.44 1012.52 1012.58 1012.60 1012.60 1012.58 1012.55 1012.51 1012.47 1012.44 1012.43 1012.43 1012.42
1004.10 1004.51 1004.91 1005.29 1005.68 1006.06 1006.47 1006.89 1007.33 1007.79 1008.26 1008.72 1009.18 1009.61 1010.01 1010.38 1010.71 1011.00 1011.26 1011.50 1011.71 1011.91 1012.09 1012.25 1012.40 1012.52 1012.62 1012.69 1012.72 1012.72 1012.70 1012.66 1012.61 1012.56 1012.52 1012.49 1012.47 1012.45
1003.56 1003.97 1004.36 1004.76 1005.16 1005.58 1006.02 1006.49 1006.98 1007.49 1008.00 1008.50 1008.98 1009.44 1009.85 1010.22 1010.56 1010.86 1011.13 1011.37 1011.60 1011.82 1012.02 1012.21 1012.39 1012.54 1012.66 1012.74 1012.79 1012.80 1012.78 1012.74 1012.68 1012.62 1012.56 1012.50 1012.45 1012.40
1002.93 1003.34 1003.75 1004.17 1004.60 1005.07 1005.56 1006.09 1006.63 1007.18 1007.73 1008.26 1008.77 1009.23 1009.65 1010.02 1010.36 1010.66 1010.93 1011.18 1011.42 1011.65 1011.87 1012.08 1012.28 1012.45 1012.59 1012.69 1012.76 1012.78 1012.76 1012.72 1012.65 1012.57 1012.49 1012.41 1012.32 1012.23
1002.26 1002.69 1003.12 1003.58 1004.06 1004.57 1005.12 1005.69 1006.28 1006.87 1007.45 1008.01 1008.52 1008.99 1009.40 1009.77 1010.09 1010.38 1010.65 1010.90 1011.14 1011.37 1011.61 1011.83 1012.04 1012.22 1012.38 1012.49 1012.56 1012.59 1012.58 1012.54 1012.47 1012.38 1012.28 1012.17 1012.05 1011.92
1001.62 1002.08 1002.55 1003.04 1003.57 1004.13 1004.72 1005.33 1005.95 1006.57 1007.16 1007.72 1008.23 1008.69 1009.09 1009.44 1009.74 1010.02 1010.27 1010.50 1010.74 1010.97 1011.20 1011.43 1011.64 1011.83 1011.99 1012.11 1012.19 1012.23 1012.22 1012.18 1012.11 1012.02 1011.91 1011.78 1011.63 1011.47
Thickness
5683 5685 5686 5691 5693 5695 5696 5696 5693 5691 5692 5695 5696 5698 5698 5697 5695 5696 5694 5691 5691 5691 5691 5691 5690 5691 5692 5692 5694 5695 5697 5698 5699 5700 5701 5702 5702 5703
5676 5678 5680 5685 5687 5689 5691 5693 5693 5690 5688 5689 5687 5689 5688 5688 5686 5687 5684 5681 5681 5681 5681 5681 5680 5681 5681 5682 5683 5685 5686 5687 5688 5690 5691 5692 5693 5694
5671 5673 5675 5677 5680 5683 5685 5687 5687 5685 5680 5677 5677 5677 5676 5677 5677 5676 5675 5674 5671 5671 5671 5670 5670 5670 5671 5672 5673 5674 5676 5677 5679 5681 5682 5683 5685 5686
5665 5666 5668 5671 5673 5676 5678 5679 5679 5679 5674 5667 5665 5665 5665 5667 5667 5667 5667 5667 5663 5660 5661 5661 5660 5660 5661 5662 5663 5665 5666 5668 5669 5671 5673 5675 5676 5677
5658 5659 5660 5662 5664 5667 5669 5670 5671 5671 5667 5662 5657 5656 5655 5657 5657 5657 5657 5656 5656 5652 5651 5651 5651 5651 5652 5653 5654 5655 5657 5659 5660 5662 5664 5665 5667 5669
5651 5651 5652 5653 5655 5657 5659 5660 5661 5660 5657 5653 5649 5647 5646 5647 5648 5647 5645 5646 5647 5647 5644 5643 5642 5642 5643 5644 5645 5646 5648 5649 5651 5653 5654 5657 5659 5660
5643 5643 5643 5643 5644 5647 5649 5650 5650 5649 5647 5644 5640 5638 5638 5638 5639 5640 5639 5638 5638 5641 5641 5641 5640 5640 5637 5636 5637 5638 5639 5641 5643 5645 5646 5648 5650 5652
5635 5635 5634 5634 5633 5634 5636 5638 5640 5640 5638 5636 5633 5632 5630 5631 5632 5633 5632 5632 5631 5633 5636 5636 5638 5636 5635 5633 5629 5630 5632 5633 5635 5636 5638 5640 5642 5644
5628 5627 5628 5626 5625 5625 5624 5625 5626 5627 5629 5629 5626 5624 5622 5623 5624 5624 5626 5628 5626 5627 5630 5629 5631 5630 5629 5622 5622 5623 5625 5626 5627 5629 5631 5632 5634 5635
5621 5620 5619 5617 5617 5617 5617 5615 5614 5614 5616 5618 5617 5616 5615 5616 5617 5619 5618 5617 5617 5619 5623 5623 5625 5625 5625 5620 5617 5618 5619 5619 5620 5621 5623 5624 5625 5627
5613 5613 5612 5610 5605 5606 5608 5605 5603 5602 5602 5604 5604 5604 5604 5606 5609 5612 5612 5614 5613 5613 5617 5619 5619 5620 5620 5619 5615 5613 5613 5613 5614 5614 5614 5614 5616 5618
5605 5604 5601 5601 5595 5597 5600 5598 5596 5595 5595 5595 5594 5595 5597 5598 5601 5606 5610 5612 5610 5608 5608 5613 5614 5616 5614 5614 5614 5613 5611 5609 5609 5608 5606 5605 5605 5609
5600 5599 5595 5589 5588 5590 5592 5593 5590 5591 5591 5591 5591 5591 5592 5594 5597 5599 5603 5608 5607 5604 5604 5607 5609 5611 5612 5609 5609 5608 5608 5607 5606 5603 5601 5597 5595 5594
5595 5595 5588 5581 5581 5582 5585 5583 5583 5586 5589 5589 5589 5589 5590 5590 5591 5592 5592 5594 5596 5596 5597 5600 5603 5603 5606 5605 5603 5602 5601 5600 5598 5596 5594 5590 5588 5584
5590 5586 5579 5574 5573 5575 5574 5576 5578 5585 5586 5586 5585 5586 5586 5585 5585 5584 5585 5586 5588 5590 5591 5592 5596 5597 5599 5597 5596 5594 5593 5592 5590 5588 5585 5583 5580 5577
5579 5573 5569 5568 5572 5570 5569 5572 5579 5583 5584 5584 5584 5583 5582 5582 5584 5585 5586 5587 5587 5586 5584 5585 5586 5588 5590 5588 5589 5587 5586 5584 5582 5579 5577 5575 5571 5566
5575 5573 5571 5571 5573 5573 5574 5576 5578 5578 5581 5582 5581 5581 5581 5582 5583 5584 5585 5587 5587 5586 5584 5582 5581 5582 5580 5581 5581 5579 5579 5577 5574 5570 5567 5567 5562 5557
5572 5574 5574 5574 5576 5576 5577 5576 5577 5578 5579 5580 5580 5581 5581 5581 5580 5581 5582 5584 5583 5583 5581 5580 5580 5580 5578 5574 5567 5570 5570 5568 5566 5563 5561 5558 5555 5549
5570 5575 5576 5577 5578 5578 5578 5578 5578 5579 5578 5580 5580 5580 5579 5579 5579 5579 5579 5579 5578 5577 5576 5576 5576 5576 5577 5575 5564 5558 5559 5558 5557 5556 5553 5550 5546 5542
5572 5575 5577 5578 5579 5580 5580 5581 5580 5578 5577 5579 5578 5578 5578 5578 5577 5576 5576 5574 5574 5572 5571 5570 5569 5568 5567 5565 5563 5559 5549 5550 5547 5545 5544 5542 5541 5535
5573 5577 5579 5580 5581 5581 5581 5581 5580 5579 5578 5578 5577 5576 5576 5576 5574 5574 5572 5562 5568 5569 5568 5565 5559 5553 5557 5558 5559 5556 5551 5541 5537 5534 5533 5533 5532 5529
5575 5579 5581 5582 5582 5582 5581 5581 5581 5579 5577 5576 5576 5575 5574 5574 5572 5570 5569 5567 5566 5566 5563 5561 5555 5555 5556 5554 5553 5551 5547 5541 5534 5528 5523 5520 5518 5516
5577 5580 5582 5583 5583 5582 5582 5581 5581 5580 5578 5577 5576 5574 5573 5571 5570 5569 5567 5565 5564 5561 5560 5558 5556 5553 5552 5550 5548 5546 5541 5539 5537 5532 5527 5517 5511 5506